| time (UTC) | temp C | wind direction | speed KPH | gust KPH | rain 1hr cm | rain 24hr cm | rain mn cm | humidity % | barometer mb |
| 20260508200529 | 21 | 210 | 12.9 | 29.0 | 0.00 | 0.00 | 0.00 | 42 | 1011.8 |
| 20260508200038 | 21 | 251 | 17.7 | 29.0 | 0.00 | 0.00 | 0.00 | 45 | 1011.5 |
| 20260508195529 | 20 | 221 | 11.3 | 29.0 | 0.00 | 0.00 | 0.00 | 45 | 1011.7 |
| 20260508195029 | 20 | 219 | 16.1 | 29.0 | 0.00 | 0.00 | 0.00 | 44 | 1011.9 |
| 20260508194526 | 21 | 267 | 17.7 | 29.0 | 0.00 | 0.00 | 0.00 | 43 | 1011.9 |
| 20260508194025 | 20 | 202 | 17.7 | 30.6 | 0.00 | 0.00 | 0.00 | 44 | 1011.9 |
| 20260508193525 | 21 | 215 | 14.5 | 30.6 | 0.00 | 0.00 | 0.00 | 45 | 1011.8 |
| 20260508193024 | 20 | 205 | 12.9 | 25.7 | 0.00 | 0.00 | 0.00 | 47 | 1011.9 |
| 20260508192525 | 20 | 217 | 16.1 | 33.8 | 0.00 | 0.00 | 0.00 | 46 | 1012.0 |
| 20260508192022 | 20 | 251 | 20.9 | 33.8 | 0.00 | 0.00 | 0.00 | 44 | 1012.2 |
| 20260508191523 | 20 | 215 | 16.1 | 33.8 | 0.00 | 0.00 | 0.00 | 42 | 1012.1 |
| 20260508191022 | 20 | 262 | 16.1 | 33.8 | 0.00 | 0.00 | 0.00 | 43 | 1012.3 |
| 20260508190521 | 20 | 211 | 16.1 | 27.4 | 0.00 | 0.00 | 0.00 | 44 | 1012.2 |
| 20260508190021 | 20 | 225 | 16.1 | 27.4 | 0.00 | 0.00 | 0.00 | 44 | 1012.4 |
| 20260508185522 | 20 | 213 | 14.5 | 27.4 | 0.00 | 0.00 | 0.00 | 46 | 1012.6 |
| 20260508185019 | 20 | 257 | 17.7 | 25.7 | 0.00 | 0.00 | 0.00 | 45 | 1012.6 |
| 20260508184525 | 20 | 188 | 12.9 | 33.8 | 0.00 | 0.00 | 0.00 | 47 | 1012.6 |
| 20260508184018 | 20 | 192 | 22.5 | 33.8 | 0.00 | 0.00 | 0.00 | 48 | 1012.7 |
| 20260508183517 | 20 | 251 | 12.9 | 27.4 | 0.00 | 0.00 | 0.00 | 48 | 1012.7 |
| 20260508183016 | 20 | 252 | 16.1 | 35.4 | 0.00 | 0.00 | 0.00 | 44 | 1012.8 |
| 20260508182516 | 20 | 252 | 22.5 | 35.4 | 0.00 | 0.00 | 0.00 | 45 | 1012.9 |
| 20260508182015 | 20 | 244 | 11.3 | 30.6 | 0.00 | 0.00 | 0.00 | 46 | 1012.9 |
| 20260508181514 | 20 | 254 | 16.1 | 30.6 | 0.00 | 0.00 | 0.00 | 45 | 1013.0 |
| 20260508181016 | 20 | 211 | 17.7 | 33.8 | 0.00 | 0.00 | 0.00 | 47 | 1013.2 |
| 20260508180512 | 20 | 213 | 20.9 | 35.4 | 0.00 | 0.00 | 0.00 | 48 | 1013.3 |
| 20260508180013 | 20 | 184 | 17.7 | 35.4 | 0.00 | 0.00 | 0.00 | 50 | 1013.3 |
| 20260508175512 | 19 | 227 | 9.7 | 32.2 | 0.00 | 0.00 | 0.00 | 47 | 1013.4 |
| 20260508175012 | 20 | 235 | 17.7 | 32.2 | 0.00 | 0.00 | 0.00 | 47 | 1013.5 |
| 20260508174511 | 20 | 218 | 16.1 | 27.4 | 0.00 | 0.00 | 0.00 | 45 | 1013.5 |
| 20260508174016 | 20 | 258 | 12.9 | 25.7 | 0.00 | 0.00 | 0.00 | 47 | 1013.5 |
| 20260508173509 | 20 | 214 | 17.7 | 25.7 | 0.00 | 0.00 | 0.00 | 47 | 1013.6 |
| 20260508173007 | 19 | 248 | 14.5 | 32.2 | 0.00 | 0.00 | 0.00 | 46 | 1013.9 |
| 20260508172506 | 19 | 225 | 19.3 | 32.2 | 0.00 | 0.00 | 0.00 | 46 | 1014.0 |
| 20260508172006 | 19 | 246 | 17.7 | 35.4 | 0.00 | 0.00 | 0.00 | 44 | 1014.0 |
| 20260508171509 | 19 | 216 | 19.3 | 35.4 | 0.00 | 0.00 | 0.00 | 46 | 1014.2 |
| 20260508171005 | 19 | 206 | 17.7 | 32.2 | 0.00 | 0.00 | 0.00 | 49 | 1014.3 |
| 20260508170503 | 19 | 219 | 11.3 | 33.8 | 0.00 | 0.00 | 0.00 | 44 | 1014.4 |
| 20260508170002 | 19 | 242 | 19.3 | 33.8 | 0.00 | 0.00 | 0.00 | 46 | 1014.5 |
| 20260508165502 | 19 | 276 | 11.3 | 27.4 | 0.00 | 0.00 | 0.00 | 50 | 1014.6 |
| 20260508165100 | 19 | 202 | 9.7 | 29.0 | 0.00 | 0.00 | 0.00 | 49 | 1014.8 |
| 20260508164559 | 19 | 261 | 14.5 | 30.6 | 0.00 | 0.00 | 0.00 | 47 | 1014.8 |
| 20260508164100 | 18 | 261 | 12.9 | 33.8 | 0.00 | 0.00 | 0.00 | 47 | 1014.9 |
| 20260508163557 | 18 | 215 | 16.1 | 33.8 | 0.00 | 0.00 | 0.00 | 48 | 1014.9 |
| 20260508163056 | 19 | 259 | 11.3 | 24.1 | 0.00 | 0.00 | 0.00 | 47 | 1015.0 |
| 20260508162555 | 18 | 273 | 11.3 | 25.7 | 0.00 | 0.00 | 0.00 | 52 | 1015.2 |
| 20260508162055 | 18 | 276 | 11.3 | 25.7 | 0.00 | 0.00 | 0.00 | 49 | 1015.1 |
| 20260508161552 | 18 | 281 | 16.1 | 24.1 | 0.00 | 0.00 | 0.00 | 47 | 1015.1 |
| 20260508161051 | 18 | 207 | 12.9 | 24.1 | 0.00 | 0.00 | 0.00 | 48 | 1015.3 |
| 20260508160556 | 18 | 242 | 12.9 | 25.7 | 0.00 | 0.00 | 0.00 | 49 | 1015.3 |
| 20260508160048 | 18 | 258 | 12.9 | 25.7 | 0.00 | 0.00 | 0.00 | 48 | 1015.3 |
| 20260508155551 | 18 | 223 | 11.3 | 24.1 | 0.00 | 0.00 | 0.00 | 51 | 1015.4 |
| 20260508155047 | 18 | 200 | 16.1 | 24.1 | 0.00 | 0.00 | 0.00 | 52 | 1015.4 |
| 20260508154545 | 17 | 254 | 12.9 | 20.9 | 0.00 | 0.00 | 0.00 | 50 | 1015.5 |
| 20260508154043 | 17 | 243 | 11.3 | 22.5 | 0.00 | 0.00 | 0.00 | 50 | 1015.5 |
| 20260508153542 | 17 | 214 | 16.1 | 25.7 | 0.00 | 0.00 | 0.00 | 49 | 1015.7 |
| 20260508153041 | 17 | 261 | 12.9 | 25.7 | 0.00 | 0.00 | 0.00 | 50 | 1015.9 |
| 20260508152544 | 17 | 254 | 12.9 | 22.5 | 0.00 | 0.00 | 0.00 | 52 | 1015.8 |
| 20260508152038 | 17 | 259 | 12.9 | 29.0 | 0.00 | 0.00 | 0.00 | 55 | 1015.9 |
| 20260508151544 | 17 | 260 | 17.7 | 29.0 | 0.00 | 0.00 | 0.00 | 51 | 1016.0 |
| 20260508151034 | 17 | 257 | 11.3 | 19.3 | 0.00 | 0.00 | 0.00 | 56 | 1016.0 |
| 20260508150533 | 16 | 284 | 12.9 | 25.7 | 0.00 | 0.00 | 0.00 | 52 | 1016.1 |
| 20260508150039 | 17 | 215 | 16.1 | 25.7 | 0.00 | 0.00 | 0.00 | 53 | 1016.1 |
| 20260508145533 | 16 | 216 | 14.5 | 27.4 | 0.00 | 0.00 | 0.00 | 53 | 1016.2 |
| 20260508145030 | 16 | 257 | 11.3 | 29.0 | 0.00 | 0.00 | 0.00 | 54 | 1016.1 |
| 20260508144540 | 16 | 284 | 17.7 | 30.6 | 0.00 | 0.00 | 0.00 | 53 | 1016.2 |
| 20260508144027 | 16 | 275 | 14.5 | 25.7 | 0.00 | 0.00 | 0.00 | 53 | 1016.3 |
| 20260508143526 | 16 | 267 | 12.9 | 20.9 | 0.00 | 0.00 | 0.00 | 56 | 1016.2 |
| 20260508143034 | 15 | 190 | 16.1 | 24.1 | 0.00 | 0.00 | 0.00 | 55 | 1016.2 |
| 20260508142522 | 15 | 263 | 11.3 | 24.1 | 0.00 | 0.00 | 0.00 | 57 | 1016.3 |
| 20260508142021 | 15 | 248 | 9.7 | 25.7 | 0.00 | 0.00 | 0.00 | 59 | 1016.3 |
| 20260508141525 | 15 | 206 | 9.7 | 25.7 | 0.00 | 0.00 | 0.00 | 58 | 1016.3 |
| 20260508141017 | 14 | 221 | 9.7 | 25.7 | 0.00 | 0.00 | 0.00 | 57 | 1016.3 |
| 20260508140516 | 14 | 236 | 11.3 | 20.9 | 0.00 | 0.00 | 0.00 | 60 | 1016.3 |
| 20260508140015 | 13 | 224 | 12.9 | 22.5 | 0.00 | 0.00 | 0.00 | 57 | 1016.3 |
| 20260508135513 | 13 | 228 | 12.9 | 22.5 | 0.00 | 0.00 | 0.00 | 57 | 1016.3 |
| 20260508135011 | 13 | 213 | 11.3 | 17.7 | 0.00 | 0.00 | 0.00 | 57 | 1016.3 |
| 20260508134510 | 13 | 277 | 14.5 | 29.0 | 0.00 | 0.00 | 0.00 | 59 | 1016.4 |
| 20260508134009 | 13 | 208 | 12.9 | 20.9 | 0.00 | 0.00 | 0.00 | 61 | 1016.4 |
| 20260508133508 | 12 | 253 | 12.9 | 19.3 | 0.00 | 0.00 | 0.00 | 60 | 1016.3 |
| 20260508133007 | 12 | 249 | 11.3 | 20.9 | 0.00 | 0.00 | 0.00 | 61 | 1016.3 |
| 20260508132504 | 12 | 248 | 12.9 | 20.9 | 0.00 | 0.00 | 0.00 | 62 | 1016.3 |
| 20260508132003 | 12 | 222 | 11.3 | 19.3 | 0.00 | 0.00 | 0.00 | 64 | 1016.3 |
| 20260508131503 | 11 | 240 | 11.3 | 19.3 | 0.00 | 0.00 | 0.00 | 65 | 1016.3 |
| 20260508131100 | 11 | 213 | 9.7 | 17.7 | 0.00 | 0.00 | 0.00 | 66 | 1016.3 |
| 20260508130600 | 11 | 224 | 6.4 | 17.7 | 0.00 | 0.00 | 0.00 | 67 | 1016.2 |
| 20260508130057 | 10 | 253 | 8.0 | 14.5 | 0.00 | 0.00 | 0.00 | 68 | 1016.3 |
| 20260508125555 | 10 | 247 | 9.7 | 16.1 | 0.00 | 0.00 | 0.00 | 68 | 1016.3 |
| 20260508125054 | 10 | 256 | 8.0 | 16.1 | 0.00 | 0.00 | 0.00 | 70 | 1016.2 |
| 20260508124559 | 9 | 257 | 8.0 | 14.5 | 0.00 | 0.00 | 0.00 | 71 | 1016.3 |
| 20260508124053 | 9 | 252 | 8.0 | 14.5 | 0.00 | 0.00 | 0.00 | 72 | 1016.3 |
| 20260508123549 | 8 | 244 | 8.0 | 16.1 | 0.00 | 0.00 | 0.00 | 72 | 1016.2 |
| 20260508123048 | 8 | 235 | 8.0 | 16.1 | 0.00 | 0.00 | 0.00 | 73 | 1016.2 |
| 20260508122547 | 8 | 217 | 8.0 | 17.7 | 0.00 | 0.00 | 0.00 | 73 | 1016.3 |
| 20260508122047 | 7 | 223 | 9.7 | 16.1 | 0.00 | 0.00 | 0.00 | 73 | 1016.2 |
| 20260508121548 | 7 | 223 | 9.7 | 17.7 | 0.00 | 0.00 | 0.00 | 73 | 1016.2 |
| 20260508121046 | 7 | 239 | 11.3 | 19.3 | 0.00 | 0.00 | 0.00 | 73 | 1016.2 |
| 20260508120545 | 7 | 208 | 9.7 | 17.7 | 0.00 | 0.00 | 0.00 | 73 | 1016.2 |
| 20260508120046 | 7 | 247 | 9.7 | 17.7 | 0.00 | 0.00 | 0.00 | 73 | 1016.2 |
| 20260508115544 | 7 | 246 | 8.0 | 22.5 | 0.00 | 0.00 | 0.00 | 73 | 1016.1 |
| 20260508115043 | 7 | 236 | 11.3 | 22.5 | 0.00 | 0.00 | 0.00 | 74 | 1016.0 |
| 20260508114543 | 7 | 198 | 8.0 | 17.7 | 0.00 | 0.00 | 0.00 | 74 | 1016.0 |
| 20260508114042 | 6 | 223 | 8.0 | 17.7 | 0.00 | 0.00 | 0.00 | 75 | 1016.0 |
| 20260508113541 | 6 | 224 | 9.7 | 17.7 | 0.00 | 0.00 | 0.00 | 75 | 1016.0 |
| 20260508113105 | 6 | 230 | 4.8 | 14.5 | 0.00 | 0.00 | 0.00 | 75 | 1016.0 |
| 20260508112542 | 6 | 228 | 9.7 | 14.5 | 0.00 | 0.00 | 0.00 | 75 | 1015.9 |
| 20260508112039 | 6 | 217 | 8.0 | 16.1 | 0.00 | 0.00 | 0.00 | 75 | 1015.9 |
| 20260508111538 | 6 | 222 | 8.0 | 16.1 | 0.00 | 0.00 | 0.00 | 74 | 1015.8 |
| 20260508111037 | 6 | 221 | 9.7 | 14.5 | 0.00 | 0.00 | 0.00 | 75 | 1015.8 |
| 20260508110537 | 6 | 215 | 9.7 | 14.5 | 0.00 | 0.00 | 0.00 | 75 | 1015.8 |
| 20260508110036 | 6 | 219 | 8.0 | 16.1 | 0.00 | 0.00 | 0.00 | 75 | 1015.8 |
| 20260508105536 | 6 | 233 | 9.7 | 16.1 | 0.00 | 0.00 | 0.00 | 75 | 1015.8 |
| 20260508105035 | 6 | 232 | 8.0 | 16.1 | 0.00 | 0.00 | 0.00 | 74 | 1015.8 |
| 20260508104545 | 6 | 215 | 9.7 | 16.1 | 0.00 | 0.00 | 0.00 | 74 | 1015.7 |
| 20260508104033 | 6 | 218 | 9.7 | 14.5 | 0.00 | 0.00 | 0.00 | 74 | 1015.6 |
| 20260508103533 | 6 | 201 | 9.7 | 14.5 | 0.00 | 0.00 | 0.00 | 74 | 1015.6 |
| 20260508103032 | 6 | 202 | 9.7 | 16.1 | 0.00 | 0.00 | 0.00 | 74 | 1015.6 |
| 20260508102532 | 6 | 213 | 6.4 | 16.1 | 0.00 | 0.00 | 0.00 | 74 | 1015.6 |
| 20260508102031 | 6 | 221 | 9.7 | 16.1 | 0.00 | 0.00 | 0.00 | 73 | 1015.6 |
| 20260508101537 | 6 | 198 | 9.7 | 14.5 | 0.00 | 0.00 | 0.00 | 73 | 1015.6 |
| 20260508101031 | 6 | 203 | 9.7 | 14.5 | 0.00 | 0.00 | 0.00 | 73 | 1015.6 |
| 20260508100528 | 6 | 203 | 8.0 | 14.5 | 0.00 | 0.00 | 0.00 | 74 | 1015.6 |
| 20260508100036 | 6 | 218 | 8.0 | 14.5 | 0.00 | 0.00 | 0.00 | 74 | 1015.6 |
| 20260508095528 | 6 | 215 | 8.0 | 12.9 | 0.00 | 0.00 | 0.00 | 74 | 1015.6 |
| 20260508095027 | 6 | 214 | 8.0 | 12.9 | 0.00 | 0.00 | 0.00 | 75 | 1015.6 |
| 20260508094526 | 6 | 216 | 6.4 | 11.3 | 0.00 | 0.00 | 0.00 | 75 | 1015.5 |
| 20260508094026 | 6 | 224 | 4.8 | 9.7 | 0.00 | 0.00 | 0.00 | 75 | 1015.5 |
| 20260508093527 | 6 | 217 | 6.4 | 9.7 | 0.00 | 0.00 | 0.00 | 76 | 1015.5 |
| 20260508093025 | 6 | 225 | 4.8 | 9.7 | 0.00 | 0.00 | 0.00 | 76 | 1015.4 |
| 20260508092526 | 6 | 219 | 3.2 | 8.0 | 0.00 | 0.00 | 0.00 | 76 | 1015.6 |
| 20260508092024 | 6 | 236 | 3.2 | 11.3 | 0.00 | 0.00 | 0.00 | 76 | 1015.5 |
| 20260508091526 | 6 | 236 | 3.2 | 11.3 | 0.00 | 0.00 | 0.00 | 76 | 1015.5 |
| 20260508091023 | 6 | 250 | 4.8 | 11.3 | 0.00 | 0.00 | 0.00 | 76 | 1015.5 |
| 20260508090521 | 6 | 238 | 3.2 | 6.4 | 0.00 | 0.00 | 0.00 | 76 | 1015.5 |
| 20260508090019 | 6 | 238 | 3.2 | 8.0 | 0.00 | 0.00 | 0.00 | 75 | 1015.5 |
| 20260508085518 | 6 | 238 | 4.8 | 8.0 | 0.00 | 0.00 | 0.00 | 75 | 1015.5 |
| 20260508085017 | 6 | 238 | 3.2 | 6.4 | 0.00 | 0.00 | 0.00 | 75 | 1015.5 |
| 20260508084516 | 6 | 237 | 3.2 | 6.4 | 0.00 | 0.00 | 0.00 | 74 | 1015.4 |
| 20260508084016 | 6 | 237 | 3.2 | 8.0 | 0.00 | 0.00 | 0.00 | 74 | 1015.3 |
| 20260508083514 | 6 | 238 | 3.2 | 9.7 | 0.00 | 0.00 | 0.00 | 73 | 1015.3 |
| 20260508083014 | 6 | 227 | 4.8 | 9.7 | 0.00 | 0.00 | 0.00 | 73 | 1015.3 |
| 20260508082520 | 7 | 226 | 4.8 | 9.7 | 0.00 | 0.00 | 0.00 | 72 | 1015.1 |
| 20260508082012 | 7 | 216 | 6.4 | 9.7 | 0.00 | 0.00 | 0.00 | 72 | 1015.2 |
| 20260508081514 | 7 | 218 | 4.8 | 9.7 | 0.00 | 0.00 | 0.00 | 71 | 1015.2 |
| 20260508081010 | 7 | 221 | 3.2 | 11.3 | 0.00 | 0.00 | 0.00 | 71 | 1015.2 |
| 20260508080510 | 7 | 223 | 3.2 | 9.7 | 0.00 | 0.00 | 0.00 | 71 | 1015.1 |
| 20260508080010 | 7 | 225 | 4.8 | 11.3 | 0.00 | 0.00 | 0.00 | 70 | 1015.2 |
| 20260508075512 | 7 | 266 | 4.8 | 12.9 | 0.00 | 0.00 | 0.00 | 70 | 1015.1 |
| 20260508075011 | 7 | 243 | 6.4 | 12.9 | 0.00 | 0.00 | 0.00 | 70 | 1015.2 |
| 20260508074515 | 7 | 247 | 4.8 | 12.9 | 0.00 | 0.00 | 0.00 | 71 | 1015.2 |
| 20260508074007 | 7 | 243 | 4.8 | 9.7 | 0.00 | 0.00 | 0.00 | 71 | 1015.2 |
| 20260508073509 | 7 | 244 | 6.4 | 11.3 | 0.00 | 0.00 | 0.00 | 71 | 1015.4 |
| 20260508073006 | 7 | 240 | 6.4 | 11.3 | 0.00 | 0.00 | 0.00 | 71 | 1015.4 |
| 20260508072607 | 7 | 250 | 4.8 | 11.3 | 0.00 | 0.00 | 0.00 | 70 | 1015.4 |
| 20260508072007 | 7 | 240 | 4.8 | 8.0 | 0.00 | 0.00 | 0.00 | 70 | 1015.4 |
| 20260508071505 | 7 | 239 | 4.8 | 9.7 | 0.00 | 0.00 | 0.00 | 70 | 1015.4 |
| 20260508071003 | 7 | 236 | 4.8 | 9.7 | 0.00 | 0.00 | 0.00 | 70 | 1015.4 |
| 20260508070503 | 7 | 230 | 4.8 | 8.0 | 0.00 | 0.00 | 0.00 | 70 | 1015.4 |
| 20260508070003 | 7 | 228 | 3.2 | 8.0 | 0.00 | 0.00 | 0.00 | 70 | 1015.5 |
| 20260508065502 | 7 | 233 | 3.2 | 8.0 | 0.00 | 0.00 | 0.00 | 70 | 1015.5 |
| 20260508065002 | 7 | 233 | 3.2 | 8.0 | 0.00 | 0.00 | 0.00 | 70 | 1015.6 |
| 20260508064507 | 7 | 232 | 4.8 | 8.0 | 0.00 | 0.00 | 0.00 | 70 | 1015.6 |
| 20260508064003 | 7 | 232 | 4.8 | 8.0 | 0.00 | 0.00 | 0.00 | 70 | 1015.6 |
| 20260508063600 | 7 | 232 | 4.8 | 8.0 | 0.00 | 0.00 | 0.00 | 70 | 1015.7 |
| 20260508063100 | 7 | 231 | 4.8 | 8.0 | 0.00 | 0.00 | 0.00 | 70 | 1015.6 |
| 20260508062559 | 7 | 230 | 4.8 | 8.0 | 0.00 | 0.00 | 0.00 | 70 | 1015.8 |
| 20260508062100 | 7 | 226 | 4.8 | 8.0 | 0.00 | 0.00 | 0.00 | 71 | 1015.7 |
| 20260508061603 | 7 | 238 | 4.8 | 8.0 | 0.00 | 0.00 | 0.00 | 71 | 1015.7 |
| 20260508061059 | 7 | 239 | 4.8 | 9.7 | 0.00 | 0.00 | 0.00 | 71 | 1015.7 |
| 20260508060559 | 7 | 227 | 4.8 | 9.7 | 0.00 | 0.00 | 0.00 | 71 | 1015.7 |
| 20260508060101 | 7 | 247 | 4.8 | 8.0 | 0.00 | 0.00 | 0.00 | 71 | 1015.8 |
| 20260508055557 | 7 | 248 | 4.8 | 11.3 | 0.00 | 0.00 | 0.00 | 70 | 1015.8 |
| 20260508055056 | 7 | 248 | 4.8 | 11.3 | 0.00 | 0.00 | 0.00 | 70 | 1015.7 |
| 20260508054623 | 7 | 238 | 4.8 | 8.0 | 0.00 | 0.00 | 0.00 | 69 | 1015.7 |
| 20260508054057 | 7 | 236 | 3.2 | 8.0 | 0.00 | 0.00 | 0.00 | 68 | 1015.7 |
| 20260508053553 | 8 | 224 | 4.8 | 8.0 | 0.00 | 0.00 | 0.00 | 67 | 1015.6 |
| 20260508053052 | 8 | 222 | 4.8 | 8.0 | 0.00 | 0.00 | 0.00 | 66 | 1015.6 |
| 20260508052558 | 8 | 213 | 3.2 | 9.7 | 0.00 | 0.00 | 0.00 | 66 | 1015.7 |
| 20260508052055 | 8 | 209 | 6.4 | 9.7 | 0.00 | 0.00 | 0.00 | 65 | 1015.6 |
| 20260508051549 | 8 | 209 | 4.8 | 8.0 | 0.00 | 0.00 | 0.00 | 65 | 1015.6 |
| 20260508051049 | 8 | 209 | 4.8 | 9.7 | 0.00 | 0.00 | 0.00 | 65 | 1015.6 |
| 20260508050549 | 8 | 209 | 6.4 | 9.7 | 0.00 | 0.00 | 0.00 | 64 | 1015.6 |
| 20260508050047 | 8 | 237 | 6.4 | 8.0 | 0.00 | 0.00 | 0.00 | 64 | 1015.7 |
| 20260508045546 | 8 | 247 | 4.8 | 8.0 | 0.00 | 0.00 | 0.00 | 64 | 1015.7 |
| 20260508045046 | 8 | 257 | 3.2 | 6.4 | 0.00 | 0.00 | 0.00 | 64 | 1015.8 |
| 20260508044546 | 8 | 258 | 3.2 | 6.4 | 0.00 | 0.00 | 0.00 | 65 | 1015.8 |
| 20260508044046 | 8 | 259 | 3.2 | 4.8 | 0.00 | 0.00 | 0.00 | 65 | 1015.9 |
| 20260508043547 | 8 | 259 | 3.2 | 4.8 | 0.00 | 0.00 | 0.00 | 65 | 1016.0 |
| 20260508043050 | 8 | 259 | 1.6 | 4.8 | 0.00 | 0.00 | 0.00 | 65 | 1016.0 |
| 20260508042546 | 8 | 259 | 3.2 | 6.4 | 0.00 | 0.00 | 0.00 | 65 | 1015.9 |
| 20260508042044 | 8 | 259 | 1.6 | 4.8 | 0.00 | 0.00 | 0.00 | 65 | 1015.9 |
| 20260508041542 | 8 | 259 | 1.6 | 6.4 | 0.00 | 0.00 | 0.00 | 64 | 1016.0 |
| 20260508041045 | 8 | 259 | 1.6 | 6.4 | 0.00 | 0.00 | 0.00 | 63 | 1015.9 |
| 20260508040541 | 8 | 259 | 1.6 | 4.8 | 0.00 | 0.00 | 0.00 | 62 | 1015.7 |
| 20260508040048 | 9 | 259 | 1.6 | 4.8 | 0.00 | 0.00 | 0.00 | 62 | 1015.7 |
| 20260508035544 | 9 | 259 | 1.6 | 6.4 | 0.00 | 0.00 | 0.00 | 61 | 1015.9 |
| 20260508035039 | 9 | 259 | 3.2 | 6.4 | 0.00 | 0.00 | 0.00 | 61 | 1015.8 |
| 20260508034540 | 9 | 260 | 1.6 | 4.8 | 0.00 | 0.00 | 0.00 | 61 | 1015.7 |
| 20260508034038 | 10 | 260 | 1.6 | 6.4 | 0.00 | 0.00 | 0.00 | 60 | 1015.8 |
| 20260508033538 | 10 | 260 | 3.2 | 6.4 | 0.00 | 0.00 | 0.00 | 60 | 1015.9 |
| 20260508033038 | 10 | 261 | 1.6 | 4.8 | 0.00 | 0.00 | 0.00 | 58 | 1015.9 |
| 20260508032638 | 10 | 261 | 0.0 | 6.4 | 0.00 | 0.00 | 0.00 | 58 | 1015.9 |
| 20260508032038 | 10 | 261 | 1.6 | 6.4 | 0.00 | 0.00 | 0.00 | 57 | 1015.9 |
| 20260508031549 | 10 | 261 | 1.6 | 6.4 | 0.00 | 0.00 | 0.00 | 56 | 1015.8 |
| 20260508031037 | 10 | 261 | 3.2 | 6.4 | 0.00 | 0.00 | 0.00 | 56 | 1015.8 |
| 20260508030538 | 10 | 262 | 3.2 | 9.7 | 0.00 | 0.00 | 0.00 | 57 | 1015.8 |
| 20260508030038 | 10 | 263 | 3.2 | 9.7 | 0.00 | 0.00 | 0.00 | 57 | 1015.9 |
| 20260508025537 | 10 | 296 | 3.2 | 6.4 | 0.00 | 0.00 | 0.00 | 57 | 1016.0 |
| 20260508025037 | 10 | 297 | 3.2 | 4.8 | 0.00 | 0.00 | 0.00 | 58 | 1016.1 |
| 20260508024538 | 10 | 297 | 3.2 | 6.4 | 0.00 | 0.00 | 0.00 | 57 | 1016.0 |
| 20260508024036 | 10 | 315 | 3.2 | 4.8 | 0.00 | 0.00 | 0.00 | 58 | 1016.0 |
| 20260508023535 | 9 | 315 | 1.6 | 4.8 | 0.00 | 0.00 | 0.00 | 57 | 1015.9 |
| 20260508023035 | 9 | 315 | 1.6 | 4.8 | 0.00 | 0.00 | 0.00 | 58 | 1016.0 |
| 20260508022536 | 9 | 315 | 1.6 | 4.8 | 0.00 | 0.00 | 0.00 | 58 | 1016.0 |
| 20260508022035 | 10 | 315 | 0.0 | 3.2 | 0.00 | 0.00 | 0.00 | 57 | 1015.9 |
| 20260508021537 | 10 | 315 | 0.0 | 3.2 | 0.00 | 0.00 | 0.00 | 57 | 1016.1 |
| 20260508021035 | 10 | 315 | 0.0 | 3.2 | 0.00 | 0.00 | 0.00 | 56 | 1016.0 |
| 20260508020537 | 10 | 315 | 0.0 | 1.6 | 0.00 | 0.00 | 0.00 | 57 | 1015.8 |
| 20260508020034 | 10 | 315 | 0.0 | 0.0 | 0.00 | 0.00 | 0.00 | 56 | 1015.8 |
| 20260508015534 | 10 | 315 | 0.0 | 1.6 | 0.00 | 0.00 | 0.00 | 55 | 1015.7 |
| 20260508015035 | 10 | 315 | 0.0 | 1.6 | 0.00 | 0.00 | 0.00 | 55 | 1015.5 |
| 20260508014534 | 10 | 315 | 0.0 | 1.6 | 0.00 | 0.00 | 0.00 | 55 | 1015.5 |
| 20260508014034 | 11 | 315 | 0.0 | 1.6 | 0.00 | 0.00 | 0.00 | 55 | 1015.5 |
| 20260508013533 | 11 | 315 | 0.0 | 0.0 | 0.00 | 0.00 | 0.00 | 54 | 1015.5 |
| 20260508013033 | 11 | 315 | 0.0 | 0.0 | 0.00 | 0.00 | 0.00 | 54 | 1015.4 |
| 20260508012536 | 11 | 315 | 0.0 | 0.0 | 0.00 | 0.00 | 0.00 | 51 | 1015.3 |
| 20260508012035 | 11 | 315 | 0.0 | 0.0 | 0.00 | 0.00 | 0.00 | 51 | 1015.3 |
| 20260508011543 | 12 | 315 | 0.0 | 0.0 | 0.00 | 0.00 | 0.00 | 50 | 1015.3 |
| 20260508011035 | 12 | 315 | 0.0 | 0.0 | 0.00 | 0.00 | 0.00 | 50 | 1015.2 |
| 20260508010532 | 12 | 315 | 0.0 | 3.2 | 0.00 | 0.00 | 0.00 | 49 | 1015.1 |
| 20260508010038 | 12 | 315 | 0.0 | 3.2 | 0.00 | 0.00 | 0.00 | 49 | 1015.1 |
| 20260508005533 | 12 | 315 | 0.0 | 1.6 | 0.00 | 0.00 | 0.00 | 49 | 1015.0 |
| 20260508005034 | 12 | 315 | 0.0 | 1.6 | 0.00 | 0.00 | 0.00 | 49 | 1015.0 |
| 20260508004538 | 13 | 315 | 0.0 | 1.6 | 0.00 | 0.00 | 0.00 | 48 | 1014.8 |
| 20260508004031 | 13 | 315 | 0.0 | 3.2 | 0.00 | 0.00 | 0.00 | 47 | 1014.8 |
| 20260508003531 | 13 | 315 | 0.0 | 3.2 | 0.00 | 0.00 | 0.00 | 46 | 1014.9 |
| 20260508003032 | 13 | 315 | 0.0 | 0.0 | 0.00 | 0.00 | 0.00 | 46 | 1014.8 |
| 20260508002533 | 13 | 315 | 0.0 | 1.6 | 0.00 | 0.00 | 0.00 | 46 | 1014.8 |
| 20260508002031 | 13 | 315 | 0.0 | 1.6 | 0.00 | 0.00 | 0.00 | 47 | 1014.7 |
| 20260508001534 | 13 | 315 | 0.0 | 3.2 | 0.00 | 0.00 | 0.00 | 46 | 1014.7 |
| 20260508001031 | 13 | 315 | 1.6 | 4.8 | 0.00 | 0.00 | 0.00 | 45 | 1014.7 |
| 20260508000533 | 14 | 315 | 0.0 | 4.8 | 0.00 | 0.00 | 0.00 | 46 | 1014.7 |
| 20260508000030 | 14 | 315 | 1.6 | 8.0 | 0.00 | 0.00 | 0.00 | 45 | 1014.7 |
| 20260507235529 | 14 | 315 | 4.8 | 8.0 | 0.00 | 0.00 | 0.00 | 44 | 1014.6 |
| 20260507235029 | 15 | 316 | 3.2 | 12.9 | 0.00 | 0.00 | 0.00 | 45 | 1014.5 |
| 20260507234535 | 15 | 315 | 3.2 | 8.0 | 0.00 | 0.00 | 0.00 | 43 | 1014.5 |
| 20260507234029 | 15 | 315 | 3.2 | 9.7 | 0.00 | 0.00 | 0.00 | 44 | 1014.5 |
| 20260507233529 | 15 | 315 | 3.2 | 9.7 | 0.00 | 0.00 | 0.00 | 42 | 1014.5 |
| 20260507233033 | 15 | 315 | 4.8 | 14.5 | 0.00 | 0.00 | 0.00 | 42 | 1014.4 |
| 20260507232528 | 15 | 294 | 4.8 | 14.5 | 0.00 | 0.00 | 0.00 | 43 | 1014.4 |
| 20260507232028 | 15 | 282 | 4.8 | 14.5 | 0.00 | 0.00 | 0.00 | 45 | 1014.4 |
| 20260507231531 | 15 | 273 | 4.8 | 11.3 | 0.00 | 0.00 | 0.00 | 42 | 1014.5 |
| 20260507231028 | 15 | 317 | 3.2 | 14.5 | 0.00 | 0.00 | 0.00 | 43 | 1014.4 |
| 20260507230530 | 15 | 309 | 6.4 | 16.1 | 0.00 | 0.00 | 0.00 | 42 | 1014.4 |
| 20260507230027 | 15 | 345 | 6.4 | 16.1 | 0.00 | 0.00 | 0.00 | 44 | 1014.4 |
| 20260507225527 | 16 | 342 | 6.4 | 16.1 | 0.00 | 0.00 | 0.00 | 43 | 1014.5 |
| 20260507225027 | 16 | 347 | 4.8 | 14.5 | 0.00 | 0.00 | 0.00 | 44 | 1014.5 |
| 20260507224527 | 16 | 355 | 3.2 | 12.9 | 0.00 | 0.00 | 0.00 | 41 | 1014.5 |
| 20260507224030 | 16 | 5 | 4.8 | 14.5 | 0.00 | 0.00 | 0.00 | 43 | 1014.5 |
| 20260507223529 | 16 | 44 | 8.0 | 14.5 | 0.00 | 0.00 | 0.00 | 41 | 1014.5 |
| 20260507223026 | 16 | 35 | 4.8 | 19.3 | 0.00 | 0.00 | 0.00 | 43 | 1014.6 |
| 20260507222526 | 16 | 318 | 6.4 | 19.3 | 0.00 | 0.00 | 0.00 | 43 | 1014.5 |
| 20260507222025 | 16 | 355 | 6.4 | 14.5 | 0.00 | 0.00 | 0.00 | 43 | 1014.6 |
| 20260507221526 | 16 | 324 | 4.8 | 20.9 | 0.00 | 0.00 | 0.00 | 45 | 1014.5 |
| 20260507221025 | 16 | 10 | 8.0 | 20.9 | 0.00 | 0.00 | 0.00 | 41 | 1014.6 |
| 20260507220524 | 16 | 311 | 11.3 | 20.9 | 0.00 | 0.00 | 0.00 | 43 | 1014.4 |
| 20260507220024 | 16 | 347 | 6.4 | 17.7 | 0.00 | 0.00 | 0.00 | 42 | 1014.6 |
| 20260507215524 | 16 | 322 | 6.4 | 17.7 | 0.00 | 0.00 | 0.00 | 43 | 1014.5 |
| 20260507215025 | 16 | 250 | 9.7 | 22.5 | 0.00 | 0.00 | 0.00 | 41 | 1014.4 |
| 20260507214528 | 16 | 338 | 8.0 | 22.5 | 0.00 | 0.00 | 0.00 | 40 | 1014.3 |
| 20260507214023 | 16 | 318 | 6.4 | 19.3 | 0.00 | 0.00 | 0.00 | 44 | 1014.4 |
| 20260507213523 | 16 | 338 | 6.4 | 19.3 | 0.00 | 0.00 | 0.00 | 41 | 1014.4 |
| 20260507213022 | 16 | 313 | 11.3 | 22.5 | 0.00 | 0.00 | 0.00 | 40 | 1014.5 |
| 20260507212523 | 16 | 265 | 9.7 | 25.7 | 0.00 | 0.00 | 0.00 | 40 | 1014.3 |
| 20260507212026 | 16 | 307 | 11.3 | 25.7 | 0.00 | 0.00 | 0.00 | 45 | 1014.4 |
| 20260507211529 | 15 | 20 | 6.4 | 20.9 | 0.00 | 0.00 | 0.00 | 42 | 1014.3 |
| 20260507211022 | 15 | 296 | 8.0 | 24.1 | 0.00 | 0.00 | 0.00 | 41 | 1014.3 |
| 20260507210522 | 16 | 298 | 16.1 | 25.7 | 0.00 | 0.00 | 0.00 | 42 | 1014.3 |
| 20260507210022 | 16 | 319 | 14.5 | 25.7 | 0.00 | 0.00 | 0.00 | 40 | 1014.3 |
| 20260507205522 | 16 | 28 | 9.7 | 20.9 | 0.00 | 0.00 | 0.00 | 41 | 1014.2 |
| 20260507205022 | 16 | 27 | 8.0 | 17.7 | 0.00 | 0.00 | 0.00 | 42 | 1014.4 |
| 20260507204521 | 16 | 321 | 6.4 | 19.3 | 0.00 | 0.00 | 0.00 | 43 | 1014.2 |
| 20260507204020 | 16 | 340 | 1.6 | 16.1 | 0.00 | 0.00 | 0.00 | 44 | 1014.2 |
| 20260507203520 | 16 | 355 | 6.4 | 24.1 | 0.00 | 0.00 | 0.00 | 45 | 1014.2 |
| 20260507203021 | 16 | 5 | 8.0 | 25.7 | 0.00 | 0.00 | 0.00 | 43 | 1014.3 |
| 20260507202520 | 16 | 344 | 8.0 | 20.9 | 0.00 | 0.00 | 0.00 | 45 | 1014.2 |
| 20260507202021 | 16 | 34 | 12.9 | 20.9 | 0.00 | 0.00 | 0.00 | 42 | 1014.1 |
| 20260507201520 | 16 | 44 | 6.4 | 20.9 | 0.00 | 0.00 | 0.00 | 41 | 1014.1 |
| 20260507201019 | 16 | 313 | 12.9 | 20.9 | 0.00 | 0.00 | 0.00 | 44 | 1014.1 |